SL-16 DEB, 23706

Orbit data source: Space-Track

SL-16 DEB, 23706 is space debris in LEO originally from a launch on Tue, 31 Oct 1995 UTC launched from the Tyuratam Missile And Space Complex (TTMTR). Debris objects in space refer to the collection of defunct objects orbiting the Earth. Examples of debris include non-operational satellites, rocket bodies, and fragments generated from explosions, collisions, or faulty payload assembly.

Loading next visibility...
Identifier
23706, 1995-058C
Orbit
LEO
Country
Flag of CISCIS
Related business
Manufacturer
Yuzhnoe
Mission
Spacecraft
Bus & Motor
SEP MOTOR COVER, Unknown motor
Mass
~0 kg wet, ~1 kg dry
Launch date (UTC)
1995-10-31 (31 years ago)
Launch vehicle
Unknown
Launch site
Tyuratam Missile And Space Complex (TTMTR)
Object type
Payload
Rocket body
Debris
Shape & HBR
CONE, 0.1 m
Radar Cross Section
Medium (>0.1 m² and <1 m²)

Expand to show TLE details & history
Last TLE update: 23 hours ago

TLE from 23 hours ago
0 SL-16 DEB
1 23706U 95058C   26266.38960993  .00000014  00000-0  53066-4 0  9993
2 23706  70.9984 242.1812 0201299 264.0327 250.5756 13.74456001548811
Epoch: 2026-09-23T09:21Z
TLE epoch observation values (Epoch: 2026-09-23T09:21:02.297Z)
Latitude
25.97313°
Longitude
-89.92691°
Altitude
1,038.136 km
Speed
7.309 km/s
True Right ascension
03h 30m 17s
True Declination
25° 50' 35"
Sunlit
Object was in full shadow at epoch
Visualization orbit readout
Latitude
Unknown
Longitude
Unknown
Altitude
Unknown
Speed
Unknown
Apparent Right ascension
Unknown
Apparent Declination
Unknown
Sunlit
N/A
Visualization observer readout
Local Sidereal Time
01:19:06
Azimuth
Unknown
Elevation
Unknown
Doppler factor
Unknown
Orbital elements
Apogee altitude
1,129.731 km
Perigee altitude
833.43 km
Semi-major axis
7,359.717 km
Eccentricity
0.02013
Inclination
70.9984°
RAAN
242.1812°
Arg. of periapsis
264.0327°
True anomaly
248.41875°
Mean anomaly
250.5756°
Eccentric anomaly
249.49531°
Mean motion
3.43757 °/min
Orbital period
104.73 mins
BSTAR
0.000053066
Loading maneuver chart data...
Computing Atmospheric mass density...
Loading historical data...
Loading historical data...
Loading historical data...
Loading historical data...
Loading historical data...
Loading historical data...
Loading historical data...

Documentation

Showing up to 5 results
|